Regional Weather Roundup
Issued by NWS

Home | Current Version | Previous Version | Text Only | Print | Product List | Glossary Off
Versions: 1 2 3 4 5 6 7 8 9 10 11 12 13 14 15 16 17 18 19 20 21 22 23 24 25 26 27 28 29 30 31 32 33 34 35 36 37 38 39 40 41 42 43 44 45 46 47 48 49 50

628
ASUS45 KTFX 011010
RWRMT
MONTANA REGIONAL WEATHER ROUNDUP
NATIONAL WEATHER SERVICE GREAT FALLS MT
400 AM MDT SAT OCT 01 2016

NOTE: "FAIR" INDICATES FEW OR NO CLOUDS BELOW 12000 FEET WITH NO
SIGNIFICANT WEATHER AND/OR OBSTRUCTIONS TO VISIBILITY.

MTZ001>007-043-011100-
WEST OF THE DIVIDE

CITY           SKY/WX    TMP DP  RH WIND       PRES   REMARKS
KALISPELL      CLOUDY    56  48  74 NE14      29.85R
MISSOULA       MOCLDY    57  42  57 SE8       29.88S
BUTTE          LGT RAIN  52  43  71 VRB6      30.11R
MULLAN PASS    MOCLDY    47  42  83 NW9G23    29.96R
ANACONDA         N/A     57  39  51 W16G25    30.06S
DEER LODGE       N/A     63  37  39 S12       30.05R
EUREKA           N/A     54  48  82 CALM      29.90F
HAMILTON         N/A     55  43  62 SW6       29.89F
LIBBY            N/A     48  48 100 CALM      29.86S
$$

MTZ008-052>055-011100-
SOUTHWEST MONTANA

CITY           SKY/WX    TMP DP  RH WIND       PRES   REMARKS
BOZEMAN        CLEAR     49  41  74 W5        30.05R
DILLON         CLOUDY    51  46  83 S8        30.08F
W YELLOWSTONE  CLOUDY    32  32 100 CALM      30.20S
ENNIS          CLOUDY    57  41  54 NE10G17   30.15F
$$

MTZ009-010-012-014-046-048-049-054-011100-
EAST SLOPES AND CENTRAL MONTANA

CITY           SKY/WX    TMP DP  RH WIND       PRES   REMARKS
CUT BANK       CLOUDY    49  46  90 N12       29.92F
GREAT FALLS    PTCLDY    64  41  42 S15       29.92F
MALMSTROM AFB  PTCLDY    55  43  64 E2        29.93F
HELENA         PTCLDY    53  41  63 W5        29.97F
AUGUSTA        PTSUNNY   57  42  57 SE5       29.94F
BOWMANS CRNR     N/A     54  41  62 S10       29.93F
CHOTEAU          N/A     50  45  81 CALM      29.94F
FAIRFIELD      PTSUNNY   56  42  58 S2        29.93S
POWER          PTSUNNY   59  42  53 S8        29.92F
RAYNESFORD       N/A     51  43  76 E5        29.96F
$$

MTZ011-013-016-021-045-047-050-051-011100-
NORTH CENTRAL MONTANA

CITY           SKY/WX    TMP DP  RH WIND       PRES   REMARKS
HAVRE          CLEAR     51  49  92 S3        29.91F
LEWISTOWN      CLEAR     50  44  80 S5        29.99F
N BAR RANCH      N/A     54  46  76 NW5       30.04F
CHINOOK          N/A     55  52  88 E8        29.92F
DENTON           N/A     51  46  85 SE8       29.93F
GEYSER         PTSUNNY   57  42  57 SE5       29.94F
GRASS RANGE      N/A     54  45  71 W5        29.95F
JUDITH GAP       N/A     51  45  79 SW14      30.02F
ROY              N/A     60  50  70 MISG      29.95F
STANFORD         N/A     51  45  80 S5        29.99S
WINIFRED         N/A     54  47  75 MISG      29.96S
$$

MTZ017>020-022>027-061-062-011100-
NORTHEAST MONTANA

CITY           SKY/WX    TMP DP  RH WIND       PRES   REMARKS
GLASGOW        CLEAR     52  49  89 E8        29.95S
JORDAN           N/A     48  46  93 CALM      29.96S
SIDNEY         CLEAR     48  46  93 N5        29.97S
WOLF POINT     CLEAR     50  47  89 E5        29.96S
PLENTYWOOD       N/A     52  48  87 N5        29.99R
POPLAR           N/A     52  48  87 N5        29.96S
$$

MTZ028>42-056>058-011100-
SOUTHCENTRAL AND SOUTHEAST MONTANA

CITY           SKY/WX    TMP DP  RH WIND       PRES   REMARKS
BAKER          CLEAR     49  46  90 CALM      29.99F
BILLINGS       CLEAR     59  45  59 SW12      30.00F
LIVINGSTON     CLEAR     50  42  74 VRB3      30.04F
MILES CITY     CLEAR     56  51  84 SE7       29.96S
BIG TIMBER     CLEAR     50  41  71 CALM      30.06S
FORSYTH          N/A     54  54 100 CALM      29.95
HARLOWTON        N/A     49  44  81 W15       30.02F
$$

REGIONAL REPORTS...DAKOTAS

CITY           SKY/WX    TMP DP  RH WIND       PRES   REMARKS
WILLISTON      CLEAR     47  44  90 N3        29.98S
MINOT          CLEAR     48  46  93 E5        30.01F
DICKINSON      CLEAR     45  42  89 E7        29.98S
BEACH            N/A     46  46 100 S7        30.01S
CROSBY           N/A     45  45 100 CALM      30.02R
WATFORD CITY     N/A     48  46  93 SE5       29.98F
BISMARCK       PTCLDY    58  45  62 S12       30.03F
GRAND FORKS    CLOUDY    53  47  79 S8        30.15F
FARGO          PTCLDY    55  48  77 SE10      30.16S
BUFFALO SD       N/A     54  47  77 CALM      29.94S
RAPID CITY     CLEAR     49  47  93 CALM      30.01F
$$

REGIONAL REPORTS...WYOMING/IDAHO/WASHINGTON

CITY           SKY/WX    TMP DP  RH WIND       PRES   REMARKS
GILLETTE       CLEAR     47  44  90 S5        30.05F
SHERIDAN       CLEAR     48  43  82 CALM      30.04S
BUFFALO WY     CLEAR     57  40  52 W8        30.09F
CODY           CLEAR     54  42  64 S7        30.10S
YELLOWSTONE LA   N/A     31  31 100 CALM      30.27F
IDAHO FALLS    CLEAR     46  43  89 N5        30.07F
SALMON         CLOUDY    54  46  76 E5        30.00F
BOISE          CLOUDY    69  46  43 VRB6      29.90R
SPOKANE        LGT RAIN  55  48  77 VRB3      29.92R
$$

REGIONAL REPORTS...ALBERTA

CITY           SKY/WX    TMP DP  RH WIND       PRES   REMARKS
EDMONTON       CLOUDY    45  43  93 E12G17    30.09F
CALGARY        LGT RAIN  46  46 100 NE9       29.99F VSB 1/4
LETHBRIDGE     MOCLDY    48  48 100 W10       29.94F
MEDICINE HAT   CLEAR     50  48  93 E10       29.91F
$$

REGIONAL REPORTS...SASKATCHEWAN

CITY           SKY/WX    TMP DP  RH WIND       PRES   REMARKS
SWIFT CURRENT  CLEAR     50  50 100 E9        29.97F
REGINA         CLEAR     46  46 100 SE8       30.00F
SASKATOON      CLOUDY    50  50 100 NE16      30.05R FOG
$$




USA.gov is the U.S. government's official web portal to all federal, state and local government web resources and services.